Monterey, CA

4:34 AM PST on December 11, 2016 (GMT -0800)
Monterey Peninsula

Weather History for KMRY - December, 2012

Change the Weather History Date:

Thursday, December 6, 2012

  Actual Average Record
Temperature  
Mean Temperature 54 °F 52 °F  
Max Temperature 58 °F 61 °F 69 °F (2006)
Min Temperature 50 °F 43 °F 36 °F (2005)
Degree Days  
Heating Degree Days 11    
Month to date heating degree days 50  
Since 1 July heating degree days 981  
Cooling Degree Days 0    
Month to date cooling degree days 0  
Year to date cooling degree days 36  
Growing Degree Days 4 (Base 50)    
Moisture  
Dew Point 52 °F    
Average Humidity 86    
Maximum Humidity 100    
Minimum Humidity 72    
Precipitation  
Precipitation 0.00 in - 0.69 in (1950)
Month to date precipitation 1.57  
Year to date precipitation 13.40  
Since 1 July precipitation 5.75  
Sea Level Pressure  
Sea Level Pressure 30.13 in    
Wind  
Wind Speed 6 mph (West)    
Max Wind Speed 14 mph    
Max Gust Speed 22 mph    
Visibility 6 miles    
Events Fog    
T = Trace of Precipitation, MM = Missing Value Source: NWS Daily Summary

Daily Weather History Graph

Daily Weather History Graph

Search for Another Location

Airport or City:

Trip Planner

Search our weather history database for the weather conditions in past years. The results will help you decide how hot, cold, wet, or windy it might be!

Date:

Astronomy

Dec. 06, 2012 Rise Set
Actual Time 7:05 AM PST 4:51 PM PST
Civil Twilight 6:37 AM PST 5:20 PM PST
Nautical Twilight 6:05 AM PST 5:52 PM PST
Astronomical Twilight 5:33 AM PST 6:23 PM PST
Moon No Moon Rise 12:10 PM PST (12/6)
Length of Visible Light 10h 42m
Length of Day
9h 45m
Waning Gibbous, 48% of the Moon is Illuminated
Dec 6
Waning Gibbous
Dec 13
New
Dec 19
First Quarter
Dec 28
Full
Jan 4
Last Quarter

Hourly Weather History & Observations

Time (PST) Temp. Dew Point Humidity Pressure Visibility Wind Dir Wind Speed Gust Speed Precip Events Conditions
12:16 AM 57.2 °F 57.2 °F 100% 30.11 in 0.5 mi West 5.8 mph - N/A Fog Fog
12:24 AM 57.2 °F 57.2 °F 100% 30.12 in 0.2 mi West 6.9 mph - N/A Fog Fog
12:33 AM 57.2 °F 57.2 °F 100% 30.11 in 0.2 mi West 6.9 mph - N/A Fog Fog
12:54 AM 57.0 °F 57.0 °F 100% 30.15 in 0.2 mi West 4.6 mph - N/A Fog Fog
1:19 AM 57.2 °F 57.2 °F 100% 30.11 in 0.2 mi West 3.5 mph - N/A Fog Fog
1:54 AM 57.0 °F 57.0 °F 100% 30.15 in 0.2 mi WSW 4.6 mph - N/A Fog Fog
2:20 AM 57.2 °F 57.2 °F 100% 30.11 in 0.5 mi Calm Calm - N/A Fog Fog
2:27 AM 57.2 °F 57.2 °F 100% 30.11 in 2.0 mi West 5.8 mph - N/A   Overcast
2:34 AM 57.2 °F 57.2 °F 100% 30.11 in 0.8 mi West 8.1 mph - N/A   Mist
2:44 AM 57.2 °F 55.4 °F 94% 30.11 in 0.2 mi West 5.8 mph - N/A Fog Fog
2:54 AM 57.0 °F 55.9 °F 96% 30.14 in 0.2 mi WSW 4.6 mph - N/A Fog Fog
3:06 AM 57.2 °F 55.4 °F 94% 30.10 in 1.0 mi WSW 5.8 mph - N/A   Mist
3:10 AM 57.2 °F 57.2 °F 100% 30.10 in 3.0 mi WSW 5.8 mph - N/A   Overcast
3:38 AM 55.4 °F 55.4 °F 100% 30.10 in 1.8 mi West 8.1 mph - N/A   Overcast
3:46 AM 55.4 °F 55.4 °F 100% 30.10 in 3.0 mi West 9.2 mph - N/A   Overcast
3:54 AM 55.9 °F 55.9 °F 100% 30.14 in 6.0 mi West 8.1 mph - N/A   Overcast
4:54 AM 55.0 °F 55.0 °F 100% 30.14 in 8.0 mi West 11.5 mph 21.9 mph N/A   Overcast
5:46 AM 55.4 °F 53.6 °F 94% 30.11 in 9.0 mi SW 5.8 mph - N/A   Overcast
5:54 AM 55.0 °F 54.0 °F 96% 30.15 in 9.0 mi WSW 4.6 mph - N/A   Overcast
6:54 AM 55.0 °F 53.1 °F 93% 30.16 in 10.0 mi SW 3.5 mph - N/A   Overcast
7:07 AM 55.4 °F 53.6 °F 94% 30.13 in 10.0 mi WSW 3.5 mph - N/A   Overcast
7:54 AM 55.0 °F 51.1 °F 86% 30.17 in 9.0 mi Calm Calm - N/A   Overcast
8:54 AM 55.9 °F 51.1 °F 84% 30.18 in 9.0 mi West 9.2 mph - N/A   Overcast
9:46 AM 55.4 °F 48.2 °F 77% 30.15 in 10.0 mi West 6.9 mph - N/A   Overcast
9:54 AM 55.9 °F 50.0 °F 80% 30.19 in 10.0 mi WSW 6.9 mph - N/A   Overcast
10:54 AM 55.9 °F 48.0 °F 75% 30.18 in 10.0 mi Variable 6.9 mph - N/A   Overcast
11:54 AM 55.9 °F 46.9 °F 72% 30.17 in 10.0 mi West 10.4 mph - N/A   Overcast
12:54 PM 55.9 °F 46.9 °F 72% 30.14 in 10.0 mi West 11.5 mph - N/A   Overcast
1:54 PM 55.9 °F 48.0 °F 75% 30.12 in 10.0 mi West 10.4 mph - N/A   Overcast
2:54 PM 55.9 °F 48.0 °F 75% 30.12 in 10.0 mi West 10.4 mph - N/A   Overcast
3:54 PM 55.0 °F 46.9 °F 74% 30.12 in 10.0 mi West 8.1 mph - N/A   Overcast
4:54 PM 55.0 °F 46.9 °F 74% 30.12 in 10.0 mi Calm Calm - N/A   Overcast
5:54 PM 54.0 °F 46.9 °F 77% 30.12 in 10.0 mi ESE 4.6 mph - N/A   Overcast
6:54 PM 54.0 °F 46.9 °F 77% 30.14 in 10.0 mi Calm Calm - N/A   Overcast
7:54 PM 54.0 °F 48.9 °F 83% 30.15 in 10.0 mi East 3.5 mph - N/A   Overcast
8:54 PM 55.0 °F 48.9 °F 80% 30.14 in 10.0 mi ENE 4.6 mph - N/A   Overcast
9:54 PM 55.0 °F 48.9 °F 80% 30.14 in 10.0 mi NE 3.5 mph - N/A   Overcast
10:54 PM 54.0 °F 48.9 °F 83% 30.14 in 10.0 mi ENE 4.6 mph - N/A   Overcast
11:26 PM 51.8 °F 48.2 °F 88% 30.10 in 10.0 mi NE 3.5 mph - N/A   Scattered Clouds
11:54 PM 50.0 °F 46.9 °F 89% 30.14 in 10.0 mi NE 3.5 mph - N/A   Clear